Powrót do katalogu

SKYSAT C1

AktywnyNaukaSSO
NORAD 41601·PAYLOAD·🇺🇸 United States

Wystrzelony Jun 22, 2016 z Satish Dhawan Space Centre

Loading…

Następne Przeloty (najbliższe 24 godziny)

TLE

ŚwieżeSource: CelesTrak SupGP

Epoka: Sep 14, 2026, 20:49 UTC

1 41601C 16040C   26257.86789352  .00006362  00000+0  17289-3 0  2576
2 41601  96.9514 284.7829 0004130  76.1890 292.6166 15.37605537    12

Śledź SKYSAT C1 w czasie rzeczywistym z AllMySat

Download on the App Store